Location: Bremen
(53.0796°N, 8.8241°E)
Time: 07:24:38
(UTC+02:00)

ISS - Visible Passes

Search period start: 29 March 2017 00:00
Search period end: 08 April 2017 00:00
Orbit: 399 x 409 km, 51.6° (Epoch: 29 March)

Date Brightness Start Highest point End Pass type
(mag) Time Alt. Az. Time Alt. Az. Time Alt. Az.
29 Mar -2.8 21:42:39 10° SW 21:45:05 30° S 21:45:05 30° S visible
30 Mar -2.5 20:50:45 10° SSW 20:53:23 23° SSE 20:55:19 14° ESE visible
30 Mar -2.3 22:26:15 10° WSW 22:28:00 28° WSW 22:28:00 28° WSW visible
31 Mar -3.5 21:33:59 10° WSW 21:37:08 47° SSE 21:38:03 35° ESE visible
31 Mar -1.0 23:10:11 10° W 23:10:43 14° W 23:10:43 14° W visible
01 Apr -3.0 20:41:49 10° SW 20:44:49 35° SSE 20:47:52 10° E visible
01 Apr -3.5 22:17:49 10° W 22:20:37 57° SW 22:20:37 57° SW visible
02 Apr -3.8 21:25:27 10° WSW 21:28:41 62° S 21:30:24 25° E visible
02 Apr -1.6 23:01:48 10° W 23:03:04 21° W 23:03:04 21° W visible
03 Apr -3.5 20:33:07 10° WSW 20:36:18 51° SSE 20:39:30 10° E visible
03 Apr -3.9 22:09:23 10° W 22:12:38 68° S 22:12:46 67° SSE visible
04 Apr -3.8 21:16:57 10° W 21:20:13 69° S 21:22:25 19° E visible
04 Apr -2.0 22:53:22 10° W 22:55:04 26° WSW 22:55:04 26° WSW visible
05 Apr -3.7 22:00:55 10° W 22:04:08 57° SSW 22:04:40 48° SSE visible
06 Apr -3.7 21:08:27 10° W 21:11:42 66° S 21:14:15 15° ESE visible
06 Apr -2.1 22:44:58 10° W 22:46:54 25° WSW 22:46:54 25° WSW visible
07 Apr -3.1 21:52:26 10° W 21:55:32 41° SSW 21:56:28 32° SSE visible
